Temp
-8 -8 -8 -9 -9 -8 -8 -9 -10 -10 -10 -10 -10 -10 -10 -10 -10 -10 -10 -10 -10 -10 -9 -9 -9 -9 -9 -8 -8 -8 -7 -7 -7 -8 -7 -7 -7 -6 -7 -6 -6 -6 -7
-8 -9 -9 -9 -9 -9 -9 -10 -10 -10 -10 -10 -10 -10 -11 -10 -10 -10 -10 -10 -10 -10 -10 -9 -9 -10 -10 -9 -9 -8 -8 -7 -7 -8 -8 -7 -7 -6 -7 -7 -6 -6 -7
-8 -9 -9 -9 -9 -9 -10 -10 -10 -10 -11 -11 -11 -11 -10 -10 -10 -10 -10 -10 -11 -10 -10 -10 -10 -10 -10 -10 -9 -8 -8 -8 -8 -8 -7 -7 -7 -6 -7 -7 -7 -7 -7
-8 -9 -9 -9 -9 -10 -10 -10 -10 -10 -10 -11 -11 -11 -10 -10 -11 -11 -10 -10 -11 -11 -10 -10 -10 -10 -10 -10 -10 -9 -8 -8 -8 -8 -8 -7 -7 -7 -7 -7 -7 -7 -7
-9 -9 -9 -9 -10 -10 -10 -10 -10 -11 -11 -11 -11 -11 -11 -10 -10 -10 -11 -11 -10 -11 -11 -10 -10 -10 -10 -10 -10 -10 -9 -8 -8 -7 -7 -7 -7 -7 -7 -6 -6 -6 -7
-9 -9 -9 -10 -10 -10 -11 -11 -11 -11 -11 -11 -11 -11 -11 -11 -11 -11 -11 -11 -11 -11 -11 -11 -10 -10 -10 -10 -10 -10 -9 -8 -8 -8 -7 -7 -7 -7 -6 -6 -6 -7 -7
-9 -9 -10 -10 -10 -11 -11 -11 -11 -11 -11 -11 -11 -11 -11 -11 -11 -11 -11 -11 -11 -11 -11 -11 -11 -11 -10 -11 -10 -10 -10 -8 -8 -7 -7 -7 -7 -7 -7 -7 -7 -7 -7
-9 -10 -10 -10 -11 -10 -11 -11 -11 -11 -12 -12 -12 -12 -11 -11 -11 -11 -12 -12 -11 -11 -11 -11 -11 -11 -10 -10 -10 -10 -10 -9 -8 -8 -8 -7 -7 -7 -7 -7 -7 -7 -7
-10 -10 -10 -11 -10 -10 -11 -11 -11 -12 -12 -12 -12 -12 -12 -12 -12 -12 -12 -12 -11 -11 -11 -11 -11 -11 -11 -10 -10 -10 -10 -10 -9 -8 -9 -7 -7 -8 -8 -7 -7 -7 -7
-11 -11 -11 -10 -10 -11 -11 -11 -12 -12 -12 -12 -13 -13 -13 -13 -13 -12 -12 -13 -12 -11 -11 -11 -11 -11 -11 -11 -10 -10 -10 -10 -9 -9 -8 -8 -8 -8 -7 -7 -7 -7 -7
-11 -10 -10 -10 -11 -11 -11 -11 -12 -12 -13 -13 -13 -13 -13 -14 -13 -13 -13 -12 -12 -12 -12 -12 -11 -10 -11 -11 -10 -10 -10 -10 -10 -9 -9 -9 -8 -8 -8 -7 -8 -7 -7
-11 -10 -10 -10 -11 -11 -11 -12 -12 -13 -13 -13 -13 -14 -14 -15 -14 -14 -14 -13 -13 -12 -12 -12 -12 -11 -11 -11 -10 -10 -10 -10 -10 -9 -9 -9 -9 -8 -8 -8 -8 -8 -8
-11 -11 -11 -11 -11 -11 -11 -12 -12 -13 -14 -14 -14 -15 -15 -15 -15 -15 -14 -14 -14 -13 -13 -13 -12 -11 -11 -11 -11 -10 -10 -10 -10 -10 -9 -9 -9 -8 -8 -8 -8 -8 -8
-11 -11 -11 -11 -11 -11 -12 -12 -12 -13 -14 -14 -14 -15 -15 -16 -15 -15 -14 -15 -14 -14 -14 -13 -12 -12 -11 -11 -11 -11 -11 -11 -11 -10 -9 -9 -9 -8 -8 -8 -8 -8 -8
-11 -11 -11 -11 -11 -11 -11 -11 -12 -13 -13 -14 -15 -15 -15 -15 -15 -14 -14 -15 -15 -15 -14 -13 -13 -12 -12 -12 -11 -11 -11 -11 -11 -11 -10 -8 -9 -8 -8 -8 -8 -8 -8
-11 -11 -11 -11 -11 -12 -11 -12 -12 -13 -14 -14 -15 -15 -15 -15 -15 -15 -15 -15 -15 -15 -14 -14 -14 -13 -12 -12 -12 -11 -11 -11 -11 -11 -10 -9 -9 -9 -8 -9 -8 -8 -8
-11 -11 -11 -11 -11 -12 -12 -12 -12 -13 -13 -14 -14 -15 -15 -15 -15 -15 -15 -15 -15 -15 -14 -14 -14 -13 -13 -12 -12 -11 -11 -11 -11 -11 -10 -9 -9 -9 -8 -8 -8 -8 -8
-11 -11 -11 -11 -12 -12 -12 -12 -12 -13 -13 -13 -14 -14 -15 -15 -15 -15 -15 -15 -15 -15 -15 -14 -14 -14 -13 -13 -12 -12 -11 -11 -11 -11 -10 -10 -10 -9 -8 -8 -8 -8 -9
-12 -12 -11 -12 -12 -12 -12 -13 -13 -13 -13 -13 -14 -14 -14 -15 -15 -15 -15 -15 -15 -15 -15 -15 -14 -14 -14 -13 -12 -12 -12 -11 -12 -11 -10 -10 -9 -9 -9 -9 -8 -9 -9
-12 -12 -12 -12 -12 -12 -11 -12 -13 -13 -13 -13 -13 -13 -14 -14 -14 -15 -15 -15 -15 -15 -15 -14 -14 -14 -13 -13 -13 -12 -12 -12 -12 -12 -11 -10 -9 -10 -10 -9 -9 -8 -8
-12 -12 -12 -12 -12 -12 -11 -12 -13 -13 -13 -13 -13 -13 -14 -14 -14 -14 -14 -14 -15 -15 -15 -15 -14 -14 -13 -13 -13 -13 -12 -12 -11 -11 -11 -11 -10 -10 -9 -10 -9 -9 -9
-12 -12 -12 -12 -12 -12 -12 -12 -12 -12 -12 -13 -13 -13 -13 -14 -14 -14 -14 -14 -14 -14 -14 -14 -14 -14 -13 -13 -13 -13 -12 -12 -11 -11 -11 -11 -11 -10 -10 -10 -10 -10 -10
-12 -12 -12 -12 -12 -12 -12 -12 -12 -13 -13 -13 -13 -13 -13 -13 -13 -14 -14 -14 -14 -14 -14 -14 -14 -14 -14 -13 -13 -12 -12 -11 -11 -12 -11 -11 -10 -10 -10 -10 -11 -10 -10
-12 -12 -12 -12 -12 -12 -12 -12 -12 -13 -12 -13 -13 -13 -13 -13 -13 -13 -14 -14 -14 -14 -14 -14 -14 -14 -13 -13 -12 -12 -12 -12 -11 -11 -11 -11 -11 -10 -10 -10 -10 -10 -10
-12 -12 -12 -12 -12 -12 -12 -12 -12 -12 -13 -13 -13 -13 -13 -13 -13 -13 -14 -14 -14 -14 -14 -14 -14 -13 -13 -13 -13 -12 -12 -12 -11 -11 -11 -11 -11 -10 -10 -10 -11 -10 -11
-12 -12 -12 -12 -12 -12 -13 -12 -12 -12 -12 -12 -12 -13 -12 -13 -13 -13 -13 -13 -14 -14 -15 -14 -14 -13 -13 -12 -13 -12 -12 -13 -11 -11 -11 -11 -11 -10 -11 -11 -11 -11 -11
Height
5865 5862 5859 5857 5854 5850 5846 5844 5841 5839 5837 5835 5834 5834 5833 5831 5830 5829 5828 5828 5830 5833 5835 5836 5838 5842 5846 5850 5856 5861 5866 5869 5874 5878 5880 5883 5885 5887 5889 5892 5893 5894 5897
5860 5856 5853 5849 5847 5844 5841 5839 5836 5833 5830 5828 5827 5825 5824 5822 5821 5820 5820 5820 5821 5824 5827 5829 5831 5834 5838 5842 5848 5854 5859 5864 5870 5874 5876 5879 5882 5884 5885 5889 5891 5892 5895
5856 5851 5848 5844 5841 5838 5835 5832 5829 5825 5822 5819 5816 5815 5815 5814 5812 5811 5811 5812 5813 5814 5818 5821 5823 5826 5830 5834 5840 5847 5853 5858 5865 5868 5873 5875 5878 5880 5883 5886 5887 5888 5892
5850 5846 5841 5839 5835 5832 5828 5824 5819 5815 5812 5810 5807 5805 5804 5804 5802 5801 5801 5803 5805 5806 5808 5812 5816 5819 5823 5827 5833 5840 5847 5853 5859 5864 5869 5871 5874 5876 5880 5882 5883 5883 5885
5844 5840 5836 5833 5830 5826 5821 5815 5810 5807 5803 5799 5796 5793 5792 5791 5791 5791 5791 5792 5795 5797 5799 5803 5807 5811 5815 5820 5826 5833 5840 5846 5854 5860 5863 5867 5869 5874 5876 5877 5878 5881 5881
5839 5835 5831 5827 5823 5818 5813 5809 5803 5799 5793 5790 5786 5783 5781 5781 5780 5780 5780 5782 5785 5789 5791 5794 5798 5803 5808 5813 5819 5826 5833 5840 5847 5853 5859 5862 5867 5870 5872 5872 5872 5877 5878
5835 5831 5826 5821 5816 5811 5807 5801 5795 5790 5784 5779 5776 5772 5769 5768 5769 5769 5770 5772 5774 5778 5782 5785 5789 5795 5800 5806 5812 5819 5826 5833 5842 5849 5854 5858 5861 5865 5867 5868 5872 5874 5875
5830 5825 5819 5815 5810 5806 5800 5793 5786 5779 5773 5768 5764 5761 5758 5756 5756 5756 5758 5760 5764 5767 5771 5776 5781 5786 5793 5800 5805 5813 5821 5827 5835 5843 5842 5850 5853 5858 5861 5865 5868 5869 5871
5824 5819 5813 5809 5804 5798 5791 5783 5776 5769 5763 5757 5753 5750 5748 5746 5745 5746 5747 5750 5753 5757 5762 5767 5773 5779 5786 5793 5801 5807 5815 5822 5828 5836 5841 5846 5851 5852 5858 5862 5865 5865 5868
5818 5813 5808 5803 5797 5790 5782 5774 5766 5760 5753 5747 5742 5738 5736 5735 5735 5736 5738 5740 5743 5747 5752 5759 5766 5772 5779 5787 5795 5802 5810 5817 5823 5829 5837 5840 5844 5850 5855 5858 5860 5863 5865
5814 5808 5803 5797 5791 5783 5774 5766 5759 5751 5743 5736 5731 5726 5723 5722 5723 5724 5726 5730 5734 5738 5744 5751 5758 5765 5772 5780 5789 5797 5805 5812 5818 5826 5832 5834 5838 5841 5850 5856 5858 5859 5863
5808 5803 5797 5791 5784 5775 5767 5760 5752 5744 5735 5728 5722 5718 5715 5712 5711 5712 5714 5718 5723 5729 5736 5743 5751 5759 5766 5774 5783 5791 5800 5808 5813 5822 5831 5834 5837 5842 5847 5851 5855 5856 5860
5803 5797 5791 5785 5777 5769 5761 5754 5746 5738 5729 5722 5717 5712 5708 5705 5703 5703 5705 5708 5713 5720 5727 5736 5745 5752 5760 5769 5777 5785 5795 5802 5810 5817 5826 5829 5835 5839 5846 5849 5851 5853 5856
5799 5792 5786 5779 5771 5764 5756 5749 5741 5732 5724 5718 5712 5707 5703 5699 5697 5697 5697 5700 5703 5711 5720 5728 5738 5747 5755 5764 5771 5779 5788 5797 5805 5812 5819 5827 5833 5835 5842 5846 5848 5852 5853
5794 5788 5782 5774 5767 5760 5752 5744 5736 5728 5720 5713 5707 5702 5698 5694 5692 5691 5692 5694 5697 5704 5713 5722 5732 5741 5750 5758 5767 5775 5784 5793 5800 5808 5816 5825 5830 5833 5837 5842 5846 5849 5851
5790 5784 5777 5769 5764 5756 5748 5741 5732 5724 5716 5710 5703 5697 5695 5692 5689 5688 5688 5691 5696 5701 5709 5716 5725 5736 5746 5754 5763 5771 5780 5789 5797 5805 5813 5818 5828 5831 5836 5840 5846 5849 5851
5787 5780 5772 5766 5760 5753 5746 5738 5730 5722 5715 5707 5701 5696 5693 5691 5687 5686 5687 5689 5693 5698 5704 5712 5721 5730 5740 5750 5760 5769 5777 5786 5795 5803 5810 5816 5825 5830 5834 5839 5842 5847 5848
5783 5776 5769 5764 5758 5751 5744 5737 5730 5722 5715 5706 5699 5695 5692 5691 5688 5686 5686 5687 5690 5695 5702 5710 5717 5727 5737 5747 5757 5767 5775 5784 5793 5800 5808 5814 5820 5825 5830 5833 5839 5843 5845
5780 5774 5767 5762 5756 5749 5742 5737 5731 5724 5716 5707 5700 5694 5692 5691 5689 5688 5687 5688 5691 5696 5702 5709 5716 5725 5735 5745 5755 5764 5774 5783 5790 5797 5805 5812 5817 5824 5828 5831 5837 5839 5839
5777 5771 5766 5760 5754 5748 5741 5737 5730 5725 5718 5710 5703 5696 5692 5690 5690 5690 5690 5690 5694 5698 5703 5709 5716 5726 5734 5743 5752 5761 5772 5781 5789 5795 5801 5810 5815 5822 5826 5831 5832 5833 5837
5775 5769 5764 5758 5753 5747 5742 5737 5731 5726 5720 5714 5707 5699 5695 5692 5691 5691 5692 5693 5697 5701 5706 5711 5719 5727 5736 5743 5750 5759 5770 5779 5787 5793 5799 5809 5816 5820 5823 5826 5829 5832 5835
5773 5767 5762 5757 5751 5746 5742 5739 5734 5729 5723 5717 5711 5705 5700 5696 5694 5694 5696 5697 5700 5704 5709 5715 5721 5728 5735 5742 5751 5761 5768 5776 5785 5792 5799 5809 5813 5819 5824 5826 5830 5834 5836
5770 5766 5760 5757 5751 5747 5743 5739 5735 5731 5725 5720 5714 5709 5705 5701 5698 5698 5698 5701 5703 5707 5712 5717 5724 5730 5737 5744 5751 5762 5770 5778 5784 5790 5799 5808 5812 5818 5821 5824 5829 5834 5837
5768 5764 5759 5757 5751 5747 5744 5740 5736 5733 5728 5723 5718 5714 5709 5705 5702 5701 5701 5703 5705 5709 5714 5719 5726 5732 5738 5744 5753 5762 5771 5779 5784 5792 5799 5806 5811 5817 5820 5825 5829 5833 5836
5767 5762 5758 5755 5752 5748 5745 5741 5738 5734 5730 5726 5722 5718 5713 5710 5707 5705 5705 5705 5708 5711 5716 5722 5728 5734 5740 5747 5757 5763 5771 5776 5782 5793 5799 5804 5809 5813 5819 5825 5830 5833 5836
5765 5760 5757 5755 5752 5748 5746 5743 5739 5736 5731 5728 5725 5722 5718 5715 5712 5710 5708 5709 5710 5713 5717 5722 5728 5734 5743 5750 5758 5763 5771 5776 5784 5792 5798 5804 5809 5814 5820 5825 5829 5833 5837
Wind_Speed
25 26 28 30 34 37 39 40 40 40 40 41 40 37 35 37 40 42 38 38 36 35 38 42 44 45 49 51 52 52 47 43 38 32 30 30 25 20 19 25 22 21 21
25 27 30 34 37 38 39 39 40 41 40 39 39 36 36 38 40 41 41 40 40 39 36 38 41 44 46 51 49 51 50 45 41 38 32 29 28 24 19 22 26 25 24
27 27 31 35 37 39 40 40 41 41 40 40 40 37 36 37 43 43 43 43 42 40 39 38 39 42 44 49 50 47 50 47 40 37 34 32 31 28 20 23 27 26 27
28 30 34 36 38 40 42 42 43 42 42 41 40 39 38 36 39 43 43 42 41 40 39 39 40 43 44 45 49 47 46 46 40 36 35 33 30 28 23 25 28 33 32
30 32 34 36 38 40 41 42 43 44 44 44 43 40 38 37 36 37 38 39 38 38 38 37 41 42 44 44 48 47 45 43 38 25 40 32 30 29 25 33 31 30 32
30 33 34 36 37 40 42 43 43 43 44 44 41 42 40 39 37 35 37 38 37 38 38 37 40 42 43 43 45 48 48 45 40 40 34 35 39 37 27 24 29 25 28
30 32 33 35 38 40 42 44 43 45 47 47 45 44 43 41 40 42 43 41 40 38 39 37 39 42 43 43 46 47 48 47 43 38 36 31 34 36 30 38 32 21 18
32 32 33 36 39 41 44 44 46 47 46 45 42 40 38 38 38 39 37 39 39 39 37 37 39 41 45 46 45 46 46 47 46 45 33 35 39 34 34 25 26 19 17
32 33 34 38 40 44 45 46 46 44 42 41 40 37 35 34 33 32 33 34 37 39 36 37 38 39 45 47 45 45 45 46 47 47 43 28 43 41 28 28 27 21 22
32 33 35 38 43 46 47 45 42 43 41 41 40 38 37 37 37 37 36 35 34 38 36 38 41 37 42 49 48 45 46 44 46 47 37 29 35 41 38 26 24 24 23
34 34 36 39 43 46 45 41 40 40 41 38 38 37 36 35 36 38 38 37 36 36 36 38 41 38 42 45 52 47 46 44 44 45 45 26 22 34 40 44 28 20 21
36 35 37 41 44 46 40 38 37 42 40 37 34 29 28 31 32 33 35 37 39 39 38 39 41 40 42 45 49 51 49 45 44 44 44 31 26 36 35 32 24 21 19
37 36 37 40 43 42 38 36 39 42 38 34 26 24 23 24 25 26 29 32 36 39 38 42 41 40 42 43 47 52 51 48 44 43 49 30 30 27 35 31 24 22 18
36 36 36 40 42 37 36 35 37 35 28 27 28 23 22 19 21 21 21 26 35 38 36 38 44 40 40 43 42 50 52 50 45 44 49 50 29 34 35 28 23 23 20
35 33 35 38 40 35 35 36 36 31 28 26 27 22 19 16 16 18 19 19 24 35 37 35 43 44 41 40 40 47 50 50 47 43 46 52 30 30 31 26 27 21 23
34 31 34 36 34 33 34 34 33 31 29 27 27 14 15 13 12 12 16 20 22 27 34 37 36 44 44 41 39 44 49 49 46 42 45 42 38 27 29 27 26 27 27
33 30 34 35 30 31 31 30 30 27 27 25 23 13 10 9 6 8 12 20 24 24 33 37 39 42 46 46 40 43 49 48 45 40 43 48 39 31 20 28 25 27 22
30 30 32 33 28 30 27 26 26 26 26 21 21 14 7 5 6 0 7 16 22 27 35 38 39 45 46 44 41 43 49 47 42 40 44 48 39 23 21 24 25 22 23
28 29 29 28 26 27 25 26 24 25 25 23 18 17 5 3 2 2 6 14 21 26 31 34 39 46 45 42 43 44 47 46 39 38 44 45 34 18 15 21 25 19 14
26 27 27 23 24 25 22 27 21 20 21 20 19 15 4 2 3 6 9 12 22 25 29 33 39 45 42 42 42 46 45 46 36 33 45 49 33 22 20 22 17 16 15
24 25 24 20 23 22 17 20 18 20 16 23 26 21 16 9 8 9 12 16 21 25 28 33 37 37 38 39 43 45 43 42 36 34 45 43 39 22 26 24 21 10 13
23 24 21 18 21 20 12 17 17 19 16 23 23 25 23 18 10 9 12 16 20 26 29 28 33 35 38 40 43 43 41 38 36 36 40 39 24 24 23 24 14 17 21
20 21 18 15 17 17 15 18 14 14 19 21 20 21 24 20 13 10 11 16 22 25 29 31 34 35 37 42 42 39 39 38 37 41 38 43 33 29 23 18 15 19 16
18 17 16 13 15 13 15 21 14 8 11 16 21 17 16 17 16 9 11 17 23 26 28 32 35 35 38 42 42 40 30 37 40 35 38 27 31 29 23 20 18 18 16
16 15 16 14 13 12 14 20 14 8 12 15 15 14 14 17 17 16 10 14 20 26 27 32 36 37 38 38 38 35 45 43 41 33 33 28 29 32 21 21 25 19 19
13 14 15 13 9 11 12 16 14 11 9 11 15 14 14 17 17 14 12 14 17 21 27 33 37 38 37 41 42 38 44 41 30 30 26 32 28 36 28 23 20 21 20
Wind_Direction
311 314 313 311 313 316 316 314 313 308 305 303 300 291 278 270 265 262 262 259 255 247 247 245 241 237 231 231 230 235 236 238 236 240 238 236 237 244 241 229 232 228 222
310 313 313 315 316 315 312 308 306 303 302 299 294 286 281 275 267 261 258 261 260 254 248 246 239 237 231 228 228 229 235 235 237 236 239 236 234 240 242 234 234 231 225
308 308 310 313 314 312 307 305 302 301 300 297 292 287 280 273 264 261 257 257 259 257 254 248 241 235 231 225 225 225 231 233 233 238 238 234 224 233 236 243 231 227 223
305 310 313 314 312 308 306 305 307 305 302 297 294 290 283 273 264 261 259 256 255 254 254 249 241 235 232 224 221 222 225 231 230 232 234 229 226 230 235 234 232 231 217
308 311 312 311 309 308 308 310 307 304 300 296 293 289 284 277 269 261 258 256 253 250 252 248 237 232 232 225 219 217 218 222 222 204 231 221 225 224 226 235 235 242 239
308 311 311 309 310 313 314 310 306 301 300 296 290 285 279 274 268 261 261 258 253 249 248 246 235 228 228 222 217 216 215 217 217 212 213 216 226 230 226 227 224 238 248
307 308 310 315 317 315 311 306 304 302 298 295 290 284 279 274 266 261 261 258 255 252 247 242 235 226 225 221 215 214 213 213 213 210 201 210 203 215 219 218 228 233 244
310 314 320 316 314 311 310 309 305 303 300 295 290 285 280 275 268 262 255 252 248 249 246 235 230 223 220 220 213 213 212 210 210 210 210 215 205 204 213 222 214 237 242
317 318 316 315 315 314 313 310 309 308 304 299 294 287 281 276 271 261 255 246 244 243 241 224 222 221 217 216 215 211 209 210 208 212 218 216 212 217 216 218 208 228 248
318 315 312 316 318 317 315 316 314 310 308 304 299 293 284 274 266 260 256 251 240 238 232 219 217 220 214 214 214 212 209 210 210 210 210 206 219 218 219 210 216 223 238
318 314 316 319 319 318 320 318 317 315 311 307 302 297 290 280 270 262 253 247 242 237 230 217 213 218 211 211 211 212 207 211 210 208 203 192 202 203 213 221 237 211 240
320 315 319 321 321 323 321 321 321 324 316 311 304 296 291 282 270 260 254 245 240 234 226 212 210 213 210 208 209 211 208 211 212 206 203 212 209 207 215 219 225 212 212
320 318 321 322 322 325 323 325 325 325 325 316 306 299 297 286 269 261 253 242 233 230 221 212 205 204 206 206 205 207 209 210 214 207 200 201 201 198 210 219 218 233 215
319 321 322 322 325 326 326 327 327 333 329 321 311 304 303 295 273 258 251 240 228 217 216 213 203 201 201 205 206 205 207 211 212 211 205 208 204 207 203 209 214 222 201
320 321 321 324 328 327 331 328 329 330 330 334 333 301 304 297 284 258 245 229 214 203 205 204 206 201 198 199 204 203 206 208 212 213 207 203 205 191 196 196 218 201 212
320 319 322 327 330 332 333 331 334 329 326 328 338 316 310 307 287 256 223 208 202 205 203 199 197 197 198 196 200 201 204 205 209 209 209 207 202 194 197 202 204 202 224
318 321 325 330 331 337 339 340 346 349 346 336 331 327 313 335 326 241 223 211 205 206 197 196 193 191 192 194 196 198 202 204 205 206 205 197 198 199 199 202 205 213 225
318 324 328 332 334 339 343 353 355 350 354 349 339 328 300 310 351 274 200 198 199 197 189 190 189 187 188 191 192 196 201 203 206 206 202 204 200 185 211 200 202 215 240
318 326 330 332 337 340 350 349 346 350 350 354 345 328 311 297 30 102 152 178 184 179 184 186 184 185 185 189 191 194 199 199 203 204 199 205 189 184 181 196 209 229 231
318 328 333 332 338 343 347 351 349 351 3 9 23 32 68 111 155 122 135 161 176 178 178 180 179 181 184 188 189 192 192 195 200 202 196 202 190 212 193 201 221 227 224
320 329 336 332 340 344 353 6 11 9 3 24 33 32 76 87 123 142 146 150 164 170 168 169 173 180 184 184 185 187 185 190 196 198 196 205 208 205 181 187 197 249 194
322 330 339 334 344 351 4 14 3 20 30 32 38 43 40 54 99 128 143 152 156 166 169 170 170 173 174 177 179 180 178 183 190 195 191 197 191 184 183 177 194 184 178
324 332 342 337 351 13 15 352 348 16 21 24 34 49 40 43 82 101 148 159 160 164 168 168 169 169 171 173 174 175 176 185 186 188 181 196 188 183 168 164 181 184 188
325 332 343 334 351 11 8 4 354 342 5 45 41 42 43 43 64 92 129 159 163 164 167 167 167 168 169 172 173 168 174 181 181 176 182 196 186 169 168 170 164 184 185
323 331 346 327 347 9 15 8 9 38 47 44 28 29 49 58 65 78 116 142 163 171 172 172 173 174 174 171 171 167 180 172 180 185 192 199 199 189 169 176 174 187 190
323 333 341 328 337 5 7 9 5 7 38 32 49 44 57 63 69 81 110 132 143 154 168 173 177 180 178 173 171 179 178 188 166 178 183 178 182 182 167 165 175 186 196